Location: Buchdorf
(48.7842°N, 10.8275°E)
Time: 17:13:42
(UTC+00:00)

Cosmos 1959 Rocket - Pass Details

Date: 09 April 2020
Orbit: 946 x 998 km, 82.9° (Epoch: 03 June)

Event Time Altitude Azimuth Distance (km) Brightness Sun altitude
Rises 19:39:33 0° 352° (N) 3,719 8.2 -15.9°
Reaches altitude 10° 19:42:07 10° 355° (N) 2,760 7.4 -16.2°
Maximum altitude 19:48:26 69° 79° (ENE) 1,048 4.5 -17.1°
Enters shadow 19:52:36 22° 158° (SSE) 1,984 5.6 -17.6°
